Location: Fairmont
(43.6520°N, 94.4610°W)
Time: 04:37:35
(UTC-06:00)

Daily predictions for brighter satellites

Satellite Brightness Start Highest point End
(mag) Time Altitude Azimuth Time Altitude Azimuth Time Altitude Azimuth
CZ-4C R/B 3.9 03:49:29 40° ENE 03:49:29 40° ENE 03:55:37 10° ESE
Cosmos 1844 Rocket 4.4 04:18:35 28° NE 04:18:35 28° NE 04:21:19 10° NE
Cosmos 1844 4.5 04:37:18 50° E 04:37:18 50° E 04:42:03 10° NE
Cosmos 2082 Rocket 4.5 04:41:11 12° N 04:44:28 19° NE 04:48:23 10° E
ATLAS CENTAUR R/B 3.3 04:54:16 28° ENE 04:54:16 28° ENE 04:57:14 10° ESE
Cosmos 1709 Rocket 4.1 04:48:05 10° S 04:54:21 76° E 05:00:45 10° N
COSMOS 2406 3.7 05:00:10 51° SSE 05:00:10 51° SSE 05:04:18 10° SSE
Cosmos 371 Rocket 4.0 05:00:05 49° NE 05:00:20 50° ENE 05:05:04 10° SE
Cosmos 1140 Rocket 4.2 05:11:32 42° N 05:11:32 42° N 05:14:57 10° NNE
COSMOS 2455 4.1 05:14:02 26° N 05:14:02 26° N 05:17:17 10° NNE
IDEFIX/ARIANE 42P 3.6 05:07:36 10° NNE 05:12:42 46° E 05:17:44 10° S
Cosmos 1833 Rocket 4.3 05:09:06 13° N 05:13:20 30° NE 05:18:15 10° ESE
USA 234 3.8 05:08:07 10° NE 05:14:06 40° NNW 05:14:23 39° NNW
Abrixas rocket 4.3 05:21:08 27° E 05:21:08 27° E 05:22:47 10° ESE
CZ-4B R/B 4.3 05:17:09 10° N 05:19:47 29° N 05:19:47 29° N
Shenzhou-11 Module 4.3 05:27:07 25° E 05:27:07 25° E 05:28:34 10° E
Cosmos 1850 Rocket 4.2 05:20:25 10° S 05:25:38 73° ESE 05:30:57 10° NNE
SKYMED 2 3.6 05:22:52 10° SSE 05:27:12 79° ENE 05:27:48 64° N
EO 1 Del DPAF 4.0 05:26:14 10° SSE 05:29:56 51° ENE 05:31:12 35° NNE
USA 229 DEB 4.4 05:23:32 10° SSW 05:30:01 52° ESE 05:36:41 10° NE
USA 229 4.4 05:23:39 10° SSW 05:30:08 52° ESE 05:36:46 10° NE
CENTAUR R/B 4.1 05:31:17 21° NNW 05:31:37 21° NNW 05:36:54 10° NNE
SL-27 R/B 3.9 05:33:12 27° NNE 05:34:30 37° ENE 05:37:55 10° SE
NOAA 6 4.0 05:29:40 10° NNE 05:34:54 84° ESE 05:40:06 10° SSW
Landsat 4 3.8 05:32:41 10° SSE 05:36:03 68° SSE 05:36:03 68° SSE
Milstar 3 4.4 05:32:29 14° SW 05:36:47 23° S 05:41:52 10° SE
CZ-4C R/B 3.0 05:34:43 41° WNW 05:37:07 55° WSW 05:44:53 10° SSE
CZ-2C R/B 4.3 05:35:18 10° S 05:38:46 41° SW 05:38:46 41° SW
Cosmos 2074 Rocket 4.1 05:35:50 10° S 05:42:01 75° E 05:48:14 10° N
SL-08 ROCKET BODY 4.2 05:37:39 10° SSW 05:43:28 66° W 05:49:22 10° N
MSX 4.4 05:39:35 10° NNE 05:45:16 58° E 05:50:54 10° S
Cosmos 1315 Rocket 3.9 05:47:18 31° SSW 05:47:18 31° SSW 05:49:35 10° S
DELTA 2 R/B (1) 4.5 05:46:13 30° SW 05:47:28 34° SSW 05:52:27 10° SE
Cosmos 2278 Rocket 2.1 05:42:32 10° SSW 05:48:12 88° WNW 05:53:55 10° NNE
Cosmos 1174 4.3 05:46:44 30° N 05:48:22 52° NE 05:51:46 10° SE
CZ-2C R/B 2.5 05:45:51 10° NNE 05:50:28 72° ESE 05:55:10 10° S
Cosmos 2181 Rocket 4.2 05:48:09 10° NNW 05:54:06 46° W 05:59:56 10° SSW
Cosmos 332 Rocket 4.1 05:54:25 42° W 05:55:03 45° WSW 05:59:40 10° S
Cosmos 1570 Rocket 3.9 05:52:28 26° NNW 05:55:26 67° WSW 06:00:35 10° S
Cosmos 304 Rocket 4.3 05:51:35 11° NNW 05:56:06 58° ENE 06:00:49 10° SSE
Feng Yun 1-1 Rocket 4.1 05:53:53 10° N 05:59:15 66° WNW 06:04:34 10° SSW
Cosmos 1844 Rocket 3.5 06:00:17 28° NW 06:00:17 28° NW 06:04:52 10° N
Tiangong 2 1.6 06:01:26 44° SSW 06:02:01 53° SSE 06:05:09 10° E
Cosmos 1766 Rocket 3.7 06:04:31 23° NNW 06:06:57 49° W 06:11:12 10° SSW
CZ-3B R/B 3.9 06:10:07 30° NW 06:11:45 82° NE 06:22:09 10° SE
Cosmos 1328 4.3 06:11:28 34° WNW 06:11:51 35° W 06:15:30 10° SSW
USA 102 3.9 06:10:53 10° S 06:14:30 48° WSW 06:15:06 43° W
COSMO-SKYMED 1 3.3 06:11:30 10° SSW 06:15:21 31° W 06:16:25 28° WNW
Cosmos 1741 Rocket 4.3 06:14:05 10° SW 06:19:02 42° WNW 06:24:01 10° N
Ariane Rocket 4.5 06:16:07 10° NNE 06:20:56 40° E 06:25:42 10° SSE
Cosmos 1908 3.4 06:19:05 10° S 06:23:00 75° E 06:26:56 10° NNE
NOSS 3-1 (C) 3.9 06:17:57 10° SSW 06:23:31 60° ESE 06:29:47 10° NE
Cosmos 1726 3.7 06:20:10 10° SSE 06:23:39 39° E 06:27:08 10° NNE
Okean-O 3.2 06:20:35 10° N 06:24:36 35° WNW 06:28:37 10° SW
Cosmos 1626 2.8 06:23:28 24° NW 06:24:50 32° W 06:28:11 10° SSW
Cosmos 2327 Rocket 4.4 06:18:57 10° SSW 06:25:03 61° W 06:31:07 10° N
Cosmos 2082 Rocket 2.1 06:23:37 10° NNW 06:29:15 80° WSW 06:34:51 10° SSE
SJ-12 3.9 06:25:30 10° N 06:29:34 62° WNW 06:33:39 10° SSW
Cosmos 1842 Rocket 3.5 06:25:34 10° S 06:30:02 81° W 06:34:34 10° N
ATLAS CENTAUR R/B 2.3 06:30:32 21° WNW 06:32:26 31° WSW 06:36:18 10° S
Cosmos 2154 Rocket 3.9 06:27:47 10° S 06:33:59 82° W 06:40:16 10° N
Cosmos 1703 3.7 06:32:02 10° NNW 06:35:46 40° W 06:39:28 10° SSW
Cosmos 2058 3.3 06:41:24 10° NNW 06:45:24 43° W 06:49:22 10° SSW
Cosmos 540 Rocket 4.3 06:42:45 10° N 06:47:45 50° ENE 06:52:42 10° SE
Cosmos-2242 4.2 06:44:57 10° WSW 06:48:12 21° WNW 06:51:27 10° NNW
SMAP 3.1 06:44:08 10° NNE 06:48:49 88° ESE 06:53:28 10° SSW
SAR-Lupe-3 4.5 06:45:54 10° SSE 06:49:28 82° WSW 06:53:05 10° NNW
USA 81 4.0 06:46:32 10° N 06:51:49 81° W 06:57:05 10° S
IDEFIX/ARIANE 42P 3.5 06:47:46 10° N 06:52:00 25° WNW 06:56:13 10° WSW
Meteor 2-1 Rocket 4.3 06:48:52 10° SSW 06:54:16 56° WNW 06:59:46 10° N
Cosmos 1484 Rocket 2.8 06:51:35 10° N 06:55:12 50° WNW 06:58:51 10° SSW
Cosmos 2297 3.7 06:49:47 10° SW 06:55:28 63° WNW 07:01:10 10° NNE
Abrixas rocket 3.6 06:53:35 12° W 06:55:56 26° SW 06:58:42 10° SSE
USA 234 4.4 06:50:44 10° NE 06:56:03 27° N 07:01:22 10° WNW
Cosmos 1833 Rocket 3.1 06:52:04 10° NW 06:57:25 45° WSW 07:02:44 10° S
Meteor 2-15 Rocket 4.4 06:53:31 10° NNW 06:59:36 75° W 07:05:38 10° S
SL-8 Rocket 4.3 06:54:12 10° S 07:00:19 73° E 07:06:28 10° NNE
BREEZE M DEB (TANK) 4.4 06:59:59 10° S 07:01:11 13° SE 07:02:21 10° ESE
Shenzhou-11 Module 2.2 06:58:49 11° W 07:01:41 66° S 07:04:41 10° ESE
Cosmos 2151 3.8 06:58:06 10° NNW 07:01:55 31° W 07:05:42 10° SSW
CZ-4 R/B 1.4 06:59:39 10° NNE 07:03:47 84° WNW 07:07:48 10° SSW
Timation 2 Rocket 4.2 06:58:37 10° NNW 07:04:52 70° ENE 07:10:52 10° SE
SL-8 R/B 3.9 07:01:21 10° WSW 07:06:09 79° SSE 07:10:59 10° ENE
Cosmos 2218 Rocket 4.5 07:00:14 10° S 07:06:30 68° E 07:12:44 10° NNE
Thor Agena Rocket 3.9 07:01:37 10° S 07:06:37 45° W 07:11:41 10° NNW
SL-27 R/B 4.4 07:07:18 10° WNW 07:09:21 14° W 07:11:23 10° SW
Nadezhda 3 Rocket 4.4 07:05:06 10° NNW 07:11:01 42° W 07:16:50 10° SSW
Meteor 2-14 Rocket 4.5 07:05:04 10° SSW 07:11:12 72° W 07:17:22 10° N
Cosmos 1500 Rocket 4.4 07:07:24 10° NNW 07:11:16 30° W 07:15:05 10° SSW
Cosmos 1633 Rocket 4.3 07:07:34 10° N 07:11:48 45° ENE 07:16:01 10° SSE
